Flag for Germany Weather past 2 weeks in Offenburg, Baden-Württemberg, Germany

Now
45 °F

Rain. Overcast.


Feels Like: 42 °F
Forecast: 33 / 63 °F
Wind: 5 mph from Northwest

Location: Lahr

Current Time: Apr 28, 2015 at 7:42:03 AM

Latest Report: Apr 28, 2015 at 7:00 AM


Visibility: 3 mi

Pressure: 29.91 "Hg

Humidity: 95%

Dew point: 43 °F

Location of OffenburgLocation

Historic Weather in Offenburg — Graph

°F

Offenburg temperature yesterday

Maximum temperature yesterday: 67 °F (at 4:00 PM)
Minimum temperature yesterday: 51 °F (at 11:00 PM)
Average temperature yesterday: 58 °F

Past Weeks' High & Low Weather Summary

 TemperatureHumidityPressure
High80 °F (Apr 15, 5:00 PM)99% (Apr 26, 5:00 AM)30.47 "Hg (Apr 26, 5:00 AM)
Low33 °F (Apr 19, 7:00 AM)15% (Apr 15, 4:00 PM)29.54 "Hg (Apr 27, 4:00 PM)
Average56 °F62%30.07 "Hg
* Reported Apr 13 6:00 AM — Apr 28 6:00 AM, Offenburg, Weather by CustomWeather, © 2015

Note: Actual official high and low records may vary slightly from our data, if they occured in-between our weather recording intervals... More about our weather records

Advertising

Offenburg weather history for previous 24 hours

 ConditionsComfort  
Time TempWeatherWind HumidityBarometerVisibility
6:00 AM
Tue, Apr 28
45 °FRain. Low clouds.5 mph96%29.87 "Hg2 mi
5:00 AM46 °FLight rain. Overcast.5 mph93%29.84 "Hg3 mi
4:00 AM46 °FLight rain. Low clouds.5 mph95%29.81 "Hg2 mi
3:00 AM47 °FLight rain. Low clouds.6 mph94%29.78 "Hg3 mi
2:00 AM48 °FLight freezing rain. Low clouds.6 mph96%29.76 "Hg1 mi
1:00 AM48 °FDrizzle. Low clouds.6 mph96%29.74 "Hg3 mi
12:00 AM49 °FLight freezing rain. Low clouds.8 mph95%29.72 "Hg1 mi
11:00 PM
Mon, Apr 27
51 °FOvercast.9 mph89%29.69 "Hg19 mi
10:00 PM52 °FOvercast.10 mph90%29.67 "Hg37 mi
9:00 PM54 °FLow clouds.6 mph93%29.64 "Hg12 mi
8:00 PM55 °FSprinkles. Low clouds.8 mph93%29.60 "Hg5 mi
7:00 PM58 °FLight rain. Low clouds.6 mph91%29.58 "Hg4 mi
6:00 PM61 °FSprinkles. Overcast.8 mph74%29.56 "Hg14 mi
5:00 PM64 °FOvercast.9 mph68%29.55 "Hg22 mi
4:00 PM67 °FPartly sunny.7 mph62%29.54 "Hg34 mi
3:00 PM64 °FOvercast.7 mph64%29.56 "Hg37 mi
2:00 PM64 °FOvercast.6 mph67%29.57 "Hg34 mi
1:00 PM62 °FPartly sunny.3 mph77%29.58 "Hg19 mi
12:00 PM61 °FLow clouds.2 mph80%29.60 "Hg16 mi
11:00 AM60 °FLight rain. Overcast.2 mph85%29.61 "Hg12 mi
10:00 AM60 °FLight rain. Overcast.2 mph86%29.61 "Hg16 mi
9:00 AM59 °FLight rain. Overcast.1 mph85%29.60 "Hg16 mi
8:00 AM56 °FOvercast.1 mph95%29.61 "Hg47 mi
7:00 AM55 °FOvercast.1 mph98%29.60 "Hg12 mi
Weather by CustomWeather, © 2015

See weather overviewHow to use our weather pages